Regional Weather Roundup
Issued by NWS

Home | Current Version | Previous Version | Text Only | Print | Product List | Glossary On
Versions: 1 2 3 4 5 6 7 8 9 10 11 12 13 14 15 16 17 18 19 20 21 22 23 24 25 26 27 28 29 30 31 32 33 34 35 36 37 38 39 40 41 42 43 44 45 46 47 48 49 50
000
ASCA44 KEWX 230812
RWRMX

LATIN AMERICA AND CARIBBEAN REGIONAL WEATHER ROUNDUP
NATIONAL WEATHER SERVICE AUSTIN/SAN ANTONIO TX
300 AM CDT FRI JUN 23 2017

NOTE: "FAIR" INDICATED FEW OR NO CLOUDS BELOW 12,000 FEET WITH NO
SIGNIFICANT WEATHER AND/OR OBSTRUCTIONS TO VISIBILITY.

BAJA CALIFORNIA

CITY           SKY/WX    TMP DP  RH WIND       PRES   REMARKS
MEXICALI       CLEAR     79  72  78 SE9       29.68S
S.J. DEL CABO    N/A    N/A N/A N/A MISG        N/A
TIJUANA        CLOUDY    63  59  88 NW3       29.89F

NORTHWESTERN MEXICO

CITY           SKY/WX    TMP DP  RH WIND       PRES   REMARKS
HERMOSILLO     MOCLDY    86  64  48 W7        29.79F

NORTHEASTERN MEXICO

CITY           SKY/WX    TMP DP  RH WIND       PRES   REMARKS
MONCLOVA         N/A    N/A N/A N/A MISG        N/A
MONTERREY      CLEAR     82  63  51 E6        29.70S
REYNOSA          N/A    N/A N/A N/A MISG        N/A
CD. VICTORIA     N/A    N/A N/A N/A MISG        N/A

WESTERN MEXICO

CITY           SKY/WX    TMP DP  RH WIND       PRES   REMARKS
AGUASCALIENTES   N/A    N/A N/A N/A MISG        N/A
COLIMA           N/A    N/A N/A N/A MISG        N/A
GUADALAJARA    PTCLDY    72  61  68 W7        30.11S
MAZATLAN       MOCLDY    79  72  78 CALM      29.87F
P. VALLARTA    CLOUDY    82  77  83 SW2       29.86F HX  91
URUAPAN          N/A    N/A N/A N/A MISG        N/A
ZACATECAS      CLEAR     70  48  46 SW10      30.17S

CENTRAL MEXICO

CITY           SKY/WX    TMP DP  RH WIND       PRES   REMARKS
CUERNAVACA       N/A    N/A N/A N/A MISG        N/A
MEXICO CITY    CLEAR     63  41  45 E5        30.24S
MORELIA        PTCLDY    66  59  77 SW8       30.14F
POZA RICA        N/A    N/A N/A N/A MISG        N/A
QUERETARO      CLEAR     64  50  59 E5        30.19F
S. LUIS POTOSI CLEAR     66  50  55 CALM      30.12S
TOLUCA         PTCLDY    50  48  93 SE3       30.30F

SOUTHERN MEXICO

CITY           SKY/WX    TMP DP  RH WIND       PRES   REMARKS
ACAPULCO       LGT RAIN  79  77  94 S5        29.83S
B. DE HUATULCO   N/A    N/A N/A N/A MISG        N/A
P. ESCONDIDO     N/A    N/A N/A N/A MISG        N/A
VERACRUZ         N/A    N/A N/A N/A MISG        N/A

YUCATAN PENINSULA

CITY           SKY/WX    TMP DP  RH WIND       PRES   REMARKS
CAMPECHE         N/A    N/A N/A N/A MISG        N/A
CANCUN         PTCLDY    81  79  94 E8        29.91F
CHETUMAL         N/A    N/A N/A N/A MISG        N/A
CD. DEL CARMEN   N/A    N/A N/A N/A MISG        N/A
COZUMEL        PTCLDY    79  77  94 E5        29.88F
MERIDA         CLEAR     75  72  88 E6        29.88F
MINATITLAN       N/A    N/A N/A N/A MISG        N/A
TAPACHULA      MOCLDY    75  73  94 CALM      29.83F

CENTRAL AMERICA

CITY           SKY/WX    TMP DP  RH WIND       PRES   REMARKS

CARIBBEAN

CITY           SKY/WX    TMP DP  RH WIND       PRES   REMARKS
ARUBA          PTCLDY    81  75  83 E12       29.83F
CURACAO        PTCLDY    79  73  83 SE8       29.86S
KINGSTON       PTCLDY    82  73  74 E7        29.92S
NASSAU         PTCLDY    81  73  78 E7        30.04F
SAN JUAN       PTCLDY    79  72  78 E5        29.95S
SANTO DOMINGO  PTCLDY    75  73  94 N5        29.94S
ST. CROIX      CLEAR     75  72  88 NE6       29.94
ST. MAARTEN    PTCLDY    81  72  74 E10       29.92S
ST. THOMAS     CLOUDY    81  73  78 NE3       29.94

$$





USA.gov is the U.S. government's official web portal to all federal, state and local government web resources and services.